[[{"header":{"parameterUnit":"m.s-1","parameterCategory":1,"la1":30.2991,"la2":30.254,"lo1":-89.0895,"lo2":-89.0444,"dy":0.0017,"dx":0.0017,"nx":28,"ny":28,"refTime":"2025-04-12T09:00:00:Z","depth":0,"parameterNumber":2,"parameterNumberName":"U-component_of_WINDS"},"data":[0,0,0,0,0,0,0,0,0,0,0,0,0,0,0,0,0,0,0,0,0,0,0,0,0,0,0,0,0,0,0,0,0,0,0,0,0,0,0,0,0,0,0,0,0,0,0,0,0,0,0,0,0,0,0,0,0,0,3.797,3.7971,0,3.8103,3.8105,3.8106,3.8081,3.8078,3.8076,3.8073,3.8208,3.8214,3.822,0,0,0,0,0,0,0,0,0,0,0,0,0,3.7689,3.7694,3.797,3.7971,3.7973,3.8103,3.8105,3.8106,3.8081,3.8078,3.8075,3.8072,3.8207,3.8213,3.822,0,0,0,0,0,0,0,0,0,0,0,0,0,3.7815,3.7696,3.7969,3.7976,3.7978,3.8102,3.8105,3.8107,3.8082,3.8078,3.8074,3.8071,3.8204,3.8213,3.8221,3.8347,0,0,3.8248,3.8252,0,0,0,0,0,0,0,0,3.7808,3.7826,3.7973,3.7976,3.7978,3.8071,3.8055,3.8187,3.8082,3.8042,3.8073,3.8069,3.8166,3.8177,3.821,3.8354,3.8359,3.8249,3.8254,3.8258,3.826,0,0,0,0,0,0,0,3.7799,3.782,3.8022,3.7975,3.7978,3.7971,3.7985,3.808,3.8122,3.8045,3.8044,3.806,3.8166,3.8202,3.8213,3.8361,3.8249,3.8256,3.8262,3.8265,3.861,3.8613,0,0,0,0,0,0,3.7789,3.7813,3.8018,3.8026,3.7883,3.7979,3.7995,3.8045,3.8121,3.8129,3.8063,3.8058,3.8189,3.8203,3.8218,3.8366,3.8258,3.8266,3.8271,3.8606,3.8611,3.8615,0,0,0,0,0,0,3.7783,3.7808,3.8013,3.7919,3.7945,3.7988,3.8045,3.805,3.8085,3.8135,3.8142,3.8092,3.8186,3.8206,3.8314,3.8371,3.827,3.8278,3.8601,3.8607,3.8613,3.8667,0,0,0,0,0,0,3.7775,3.7806,3.7855,3.792,3.795,3.8108,3.8048,3.8055,3.81,3.8096,3.8163,3.8171,3.8185,3.8301,3.8323,3.8381,3.8285,3.8596,3.8604,3.8611,3.866,3.8674,3.8686,0,0,0,0,0,3.7765,3.7866,3.7858,3.7882,3.8013,3.8112,3.8128,3.8143,3.8105,3.8154,3.8185,3.8169,3.8362,3.8313,3.8337,3.8398,3.8593,3.8602,3.861,3.8655,3.8671,3.8686,0,0,0,0,0,0,3.7806,3.7874,3.7866,3.7991,3.8046,3.8107,3.8169,3.8161,3.8226,3.8219,3.8234,3.8249,3.8359,3.839,3.8334,3.8522,3.8472,3.8486,3.8497,3.8514,3.8526,3.8515,3.8292,0,0,0,0,0,3.7829,3.7905,3.7961,3.8065,3.8093,3.8127,3.817,3.8176,3.8233,3.8256,3.8296,3.8351,3.8423,3.8471,3.854,3.8666,3.8678,3.872,3.8732,3.8743,3.8753,3.8818,3.8836,3.8644,3.8644,3.8643,0,0,3.7878,3.7925,3.7972,3.8075,3.8117,3.8193,3.8146,3.823,3.8285,3.8269,3.8373,3.8404,3.8466,3.8582,3.8635,3.8611,3.8809,3.8754,3.8762,3.8767,3.8829,3.8847,3.8863,3.865,3.8649,3.8648,0,0,3.8006,3.8051,3.8141,3.8185,3.825,3.8271,3.8293,3.8356,3.8375,3.848,3.8467,3.8534,3.866,3.8703,3.8742,3.8883,3.8869,3.8906,3.8971,3.9034,3.9049,3.9062,3.9108,3.9125,3.8917,3.8917,3.8917,0,3.8059,3.8174,3.8188,3.8272,3.8316,3.8304,3.8393,3.8435,3.852,3.855,3.8522,3.8677,3.8719,3.8843,3.8877,3.891,3.8932,3.8897,3.9045,3.9059,3.9072,3.9116,3.9134,3.8921,3.8921,3.892,3.892,0,3.8233,3.8313,3.8378,3.8459,3.851,3.8597,3.8622,3.8672,3.8674,3.8697,3.8802,3.8851,3.8929,3.8959,3.8962,3.9083,3.9066,3.9042,3.8991,3.9093,3.9135,3.9153,3.8926,3.8925,3.8924,3.8923,0,0,3.839,3.8476,3.8499,3.8534,3.8605,3.8666,3.8751,3.8827,3.8867,3.8926,3.8995,3.9101,3.9078,3.9122,3.9129,3.9185,3.9288,3.9153,3.9155,3.9173,3.942,3.9434,3.9454,3.928,3.9284,3.9287,3.9413,0,3.8521,3.867,3.8685,3.8818,3.8889,3.8879,3.8952,3.9002,3.9026,3.9089,3.9115,3.9188,3.9155,3.918,3.9235,3.9264,3.9337,3.9256,3.9342,3.9345,3.9323,3.9477,3.9494,3.961,3.943,3.9433,3.9435,0,3.8694,3.8756,3.8896,3.8953,3.8984,3.9049,3.9118,3.918,3.9235,3.9248,3.9296,3.9295,3.938,3.9328,3.9443,3.9387,3.9423,3.9442,3.9447,3.9453,3.9394,3.9483,3.9649,3.9665,3.9461,3.9459,3.9457,0,3.8788,3.8908,3.9006,3.9037,3.9107,3.9153,3.9184,3.9236,3.9279,3.934,3.9367,3.9437,3.9474,3.9527,3.9543,3.9505,3.9656,3.9607,3.9667,3.9666,3.9697,3.9694,3.9867,3.9727,3.9726,3.9726,3.9726,0,3.8931,3.9016,3.9049,3.9109,3.9203,3.9218,3.931,3.9339,3.9385,3.9449,3.9445,3.9504,3.9525,3.9587,3.9602,3.9692,3.971,3.9721,3.9723,3.9719,3.9717,3.9741,3.9732,3.9731,3.973,3.9729,3.9728,0,3.9052,3.9078,3.9183,3.9241,3.9257,3.9323,3.9371,3.9428,3.9451,3.9531,3.9551,3.9586,3.9659,3.9682,3.9771,3.978,3.9884,3.9881,3.9865,3.9865,3.9922,3.9915,4.0113,4.0138,3.9985,3.9986,3.9987,0,3.9139,3.9204,3.9268,3.931,3.9343,3.9412,3.9456,3.9473,3.9519,3.9585,3.9633,3.9705,3.9764,3.9881,3.9913,3.998,3.9976,4.0041,3.9986,3.9979,3.9972,3.9966,3.9971,4.005,4.0052,4.0053,4.0054,0,3.9291,3.93,3.9363,3.9431,3.9483,3.9538,3.959,3.9624,3.9649,3.97,3.9774,3.9819,3.9909,3.9979,4.0047,4.0077,4.0069,4.0071,4.0088,4.0083,4.007,4.0074,3.9889,4.0066,4.0065,4.0064,4.0063,4.0063,3.9395,3.945,3.9503,3.9573,3.9614,3.9662,3.9717,3.9746,3.9809,3.9882,3.9889,3.9968,4.0019,4.0109,4.0143,4.0204,4.0185,4.021,4.0216,4.0221,4.0223,4.0063,4.0217,4.0216,4.0216,4.0216,4.0215,0,3.9542,3.9575,3.964,3.9712,3.9766,3.9755,3.9811,3.9857,3.9927,3.9976,4.0033,4.0116,4.0184,4.0222,4.0289,4.033,4.0328,4.0347,4.0342,4.0348,4.0238,4.0215,4.0348,4.0347,4.0347,4.0347,4.0347,4.0347,3.9625,3.9717,3.9732,3.9843,3.9876,3.9953,3.9986,4.0029,4.0067,4.0161,4.0217,4.0242,4.0285,4.0355,4.0415,4.0424,4.0447,4.0468,4.0475,4.037,4.0357,4.0344,4.0322,4.0474,4.0474,4.0579,4.058,4.0581]},{"header":{"parameterUnit":"m.s-1","parameterCategory":1,"la1":30.2991,"la2":30.254,"lo1":-89.0895,"lo2":-89.0444,"dy":0.0017,"dx":0.0017,"nx":28,"ny":28,"refTime":"2025-04-12T09:00:00:Z","depth":0,"parameterNumber":3,"parameterNumberName":"V-component_of_WINDS"},"data":[0,0,0,0,0,0,0,0,0,0,0,0,0,0,0,0,0,0,0,0,0,0,0,0,0,0,0,0,0,0,0,0,0,0,0,0,0,0,0,0,0,0,0,0,0,0,0,0,0,0,0,0,0,0,0,0,0,0,4.1667,4.1669,0,4.1804,4.1806,4.1807,4.1796,4.1794,4.1792,4.179,4.1924,4.193,4.1935,0,0,0,0,0,0,0,0,0,0,0,0,0,4.139,4.1395,4.1667,4.1669,4.1671,4.1804,4.1806,4.1807,4.1796,4.1794,4.1791,4.1789,4.1922,4.1929,4.1935,0,0,0,0,0,0,0,0,0,0,0,0,0,4.1516,4.1396,4.1667,4.1681,4.1684,4.1803,4.1806,4.1808,4.1797,4.1794,4.1791,4.1788,4.192,4.1928,4.1936,4.2049,0,0,4.1961,4.1965,0,0,0,0,0,0,0,0,4.1509,4.1527,4.1677,4.1681,4.1684,4.178,4.1757,4.1888,4.1798,4.1754,4.179,4.1786,4.1878,4.189,4.1922,4.2055,4.2061,4.1962,4.1967,4.1971,4.1973,0,0,0,0,0,0,0,4.1501,4.1521,4.1721,4.168,4.1683,4.1679,4.1693,4.1782,4.1831,4.1757,4.1757,4.1774,4.1879,4.1914,4.1925,4.2063,4.1962,4.1969,4.1974,4.1978,4.2291,4.2295,0,0,0,0,0,0,4.1489,4.1513,4.1717,4.1725,4.1587,4.1686,4.1702,4.1752,4.1831,4.184,4.1776,4.1772,4.1902,4.1915,4.193,4.2065,4.1971,4.1978,4.1983,4.2288,4.2292,4.2296,0,0,0,0,0,0,4.1483,4.1508,4.1711,4.1619,4.1645,4.1694,4.175,4.1756,4.1791,4.1845,4.1853,4.1803,4.19,4.1918,4.2019,4.2069,4.1982,4.199,4.2284,4.2289,4.2294,4.2337,0,0,0,0,0,0,4.1476,4.1506,4.1551,4.1621,4.165,4.1801,4.1753,4.1761,4.1806,4.1803,4.1872,4.188,4.1899,4.2007,4.2027,4.2079,4.1996,4.228,4.2286,4.2292,4.2331,4.2343,4.2353,0,0,0,0,0,4.1466,4.1557,4.1553,4.1578,4.1708,4.1804,4.182,4.1841,4.181,4.1855,4.1888,4.1878,4.2061,4.2017,4.204,4.2095,4.2277,4.2285,4.2292,4.2326,4.234,4.2352,0,0,0,0,0,0,4.149,4.1566,4.1563,4.168,4.1736,4.1802,4.1859,4.1856,4.192,4.1914,4.1935,4.1951,4.2052,4.2083,4.2034,4.2206,4.2164,4.2177,4.2182,4.2196,4.2207,4.2197,4.2003,0,0,0,0,0,4.1509,4.1583,4.1645,4.1741,4.177,4.1809,4.1852,4.1863,4.1921,4.1944,4.1985,4.204,4.2109,4.2154,4.2221,4.2335,4.2349,4.2384,4.2395,4.2404,4.2414,4.2474,4.249,4.2321,4.2321,4.2321,0,0,4.1549,4.16,4.1645,4.1748,4.1792,4.1865,4.1829,4.1909,4.1963,4.1955,4.2053,4.2085,4.2147,4.2255,4.2304,4.2284,4.2463,4.2413,4.242,4.2426,4.2483,4.2499,4.2513,4.2326,4.2325,4.2324,0,0,4.1659,4.1706,4.1791,4.1836,4.1905,4.193,4.195,4.2017,4.2038,4.2137,4.2132,4.2195,4.2315,4.2359,4.2397,4.2521,4.2513,4.2542,4.2598,4.2657,4.267,4.2682,4.2724,4.2739,4.2552,4.2553,4.2553,0,4.17,4.1813,4.1835,4.1915,4.1959,4.1957,4.2041,4.2083,4.2169,4.2198,4.2175,4.2324,4.2366,4.2482,4.2513,4.2544,4.2566,4.2534,4.2667,4.2679,4.269,4.2731,4.2747,4.2555,4.2555,4.2555,4.2555,0,4.1858,4.1936,4.1996,4.208,4.2131,4.2213,4.2245,4.2293,4.2299,4.2326,4.2425,4.2475,4.2551,4.2579,4.2585,4.2696,4.2681,4.2662,4.262,4.2709,4.2747,4.2763,4.256,4.2559,4.2558,4.2557,0,0,4.1989,4.2083,4.2105,4.2142,4.2216,4.2275,4.2355,4.2431,4.2471,4.253,4.2596,4.2696,4.2679,4.2722,4.2733,4.2784,4.2877,4.2758,4.276,4.2777,4.2999,4.3012,4.303,4.2872,4.2875,4.2877,4.2993,0,4.2105,4.225,4.2271,4.2398,4.2469,4.2466,4.2536,4.2587,4.2614,4.2676,4.2704,4.2774,4.2747,4.2772,4.2823,4.2855,4.2921,4.2847,4.2931,4.2934,4.2915,4.305,4.3065,4.3172,4.3008,4.3011,4.3013,0,4.2261,4.2325,4.2459,4.2522,4.2552,4.2615,4.2685,4.2745,4.2802,4.2817,4.2864,4.2868,4.2949,4.2903,4.3012,4.2961,4.2997,4.3017,4.3022,4.303,4.2978,4.306,4.3206,4.3222,4.3037,4.3035,4.3033,0,4.2341,4.246,4.2556,4.2588,4.2663,4.2707,4.274,4.2794,4.2838,4.2898,4.2926,4.2994,4.3031,4.3082,4.3103,4.3068,4.321,4.3167,4.3223,4.3223,4.3253,4.3251,4.3405,4.3278,4.3277,4.3277,4.3277,0,4.2469,4.255,4.2592,4.2651,4.2741,4.2763,4.2851,4.2882,4.293,4.2992,4.2994,4.3052,4.3077,4.3138,4.3154,4.3241,4.3258,4.3271,4.3274,4.327,4.3269,4.3293,4.3286,4.3281,4.328,4.3279,4.3279,0,4.2573,4.2605,4.2708,4.2771,4.2789,4.2852,4.2905,4.296,4.2986,4.3064,4.3084,4.3124,4.3195,4.3222,4.3309,4.332,4.3419,4.3417,4.3401,4.3401,4.3455,4.3449,4.3631,4.3655,4.3512,4.3513,4.3515,0,4.2652,4.2715,4.2785,4.2828,4.2863,4.2931,4.2976,4.2998,4.3044,4.3113,4.3159,4.3231,4.3289,4.3403,4.3438,4.3504,4.3502,4.3561,4.3512,4.3506,4.3501,4.3497,4.3502,4.357,4.3572,4.3573,4.3574,0,4.2789,4.2801,4.2866,4.2936,4.2989,4.3045,4.3099,4.3133,4.3163,4.3214,4.3288,4.3334,4.3423,4.3493,4.356,4.3591,4.3587,4.3589,4.3605,4.3602,4.3589,4.3595,4.3424,4.3585,4.3584,4.3583,4.3582,4.3582,4.2882,4.2937,4.2994,4.3066,4.3109,4.3159,4.3213,4.3246,4.3309,4.3384,4.3393,4.3472,4.3524,4.3614,4.3648,4.3709,4.3692,4.3716,4.3722,4.3727,4.373,4.358,4.3721,4.3721,4.372,4.372,4.372,0,4.3017,4.3053,4.3119,4.3195,4.3251,4.3243,4.3302,4.3348,4.3418,4.3469,4.3526,4.361,4.3678,4.3718,4.3785,4.3825,4.3824,4.3842,4.3838,4.3845,4.3742,4.3721,4.3841,4.3841,4.3841,4.3841,4.3841,4.3841,4.3094,4.3186,4.3204,4.3316,4.3352,4.3431,4.3465,4.3509,4.355,4.3644,4.3701,4.3727,4.3772,4.3842,4.3902,4.3912,4.3936,4.3955,4.3962,4.3865,4.3853,4.3841,4.3821,4.396,4.396,4.406,4.4061,4.4062]}]]